TimePDT,TemperatureF,Dew PointF,Humidity,Sea Level PressureIn,VisibilityMPH,Wind Direction,Wind SpeedMPH,Gust SpeedMPH,PrecipitationIn,Events,Conditions,WindDirDegrees,DateUTC
12:53 AM,57.9,52.0,81,30.01,9.0,NNW,3.5,-,0.01,Rain,Light Rain,340,2013-03-31 07:53:00
1:53 AM,55.9,54.0,93,30.03,10.0,Calm,Calm,-,0.01,,Overcast,0,2013-03-31 08:53:00
2:27 AM,55.4,53.6,94,30.03,10.0,ENE,3.5,-,N/A,,Overcast,60,2013-03-31 09:27:00
2:53 AM,55.9,55.0,97,30.03,10.0,SSE,3.5,-,0.00,Rain,Light Rain,160,2013-03-31 09:53:00
3:42 AM,55.4,53.6,94,30.04,10.0,SSW,5.8,-,0.02,Rain,Light Rain,210,2013-03-31 10:42:00
3:53 AM,55.9,53.1,90,30.04,10.0,SW,5.8,-,0.02,,Overcast,230,2013-03-31 10:53:00
4:53 AM,55.0,52.0,89,30.05,10.0,SW,6.9,-,N/A,,Overcast,220,2013-03-31 11:53:00
5:53 AM,54.0,52.0,93,30.06,10.0,SSW,3.5,-,N/A,,Partly Cloudy,200,2013-03-31 12:53:00
6:53 AM,54.0,52.0,93,30.07,10.0,South,3.5,-,N/A,,Overcast,170,2013-03-31 13:53:00
7:05 AM,53.6,51.8,94,30.07,10.0,South,3.5,-,N/A,,Overcast,180,2013-03-31 14:05:00
7:53 AM,55.0,52.0,89,30.08,10.0,Calm,Calm,-,N/A,,Overcast,0,2013-03-31 14:53:00
8:18 AM,55.4,53.6,94,30.09,10.0,SSE,4.6,-,N/A,,Overcast,160,2013-03-31 15:18:00
8:37 AM,55.4,55.4,100,30.09,3.0,SE,4.6,-,0.02,Rain,Rain,140,2013-03-31 15:37:00
8:53 AM,57.0,55.0,93,30.09,9.0,SSE,8.1,-,0.02,,Overcast,160,2013-03-31 15:53:00
9:16 AM,59.0,55.4,88,30.08,10.0,SSE,10.4,-,N/A,,Overcast,160,2013-03-31 16:16:00
9:36 AM,57.2,53.6,88,30.09,10.0,SSE,8.1,-,N/A,,Overcast,160,2013-03-31 16:36:00
9:53 AM,57.9,54.0,87,30.09,10.0,SE,6.9,-,N/A,,Overcast,130,2013-03-31 16:53:00
10:26 AM,59.0,53.6,82,30.10,10.0,SE,8.1,-,N/A,,Overcast,140,2013-03-31 17:26:00
10:53 AM,60.1,53.1,78,30.10,10.0,Variable,5.8,-,N/A,,Mostly Cloudy,0,2013-03-31 17:53:00
11:01 AM,60.8,51.8,72,30.10,10.0,South,6.9,-,N/A,,Mostly Cloudy,190,2013-03-31 18:01:00
11:53 AM,62.1,51.1,67,30.09,10.0,SE,6.9,-,N/A,,Partly Cloudy,130,2013-03-31 18:53:00
12:53 PM,66.9,51.1,57,30.07,10.0,SSE,9.2,-,N/A,,Scattered Clouds,150,2013-03-31 19:53:00
1:53 PM,66.9,48.9,52,30.04,10.0,ESE,6.9,-,N/A,,Mostly Cloudy,110,2013-03-31 20:53:00
2:53 PM,68.0,48.0,49,30.01,10.0,WNW,8.1,-,N/A,,Mostly Cloudy,300,2013-03-31 21:53:00
3:53 PM,64.9,50.0,58,30.00,10.0,WSW,11.5,-,0.00,,Overcast,240,2013-03-31 22:53:00
4:21 PM,55.4,50.0,82,30.04,1.8,South,11.5,28.8,0.07,Rain,Heavy Rain,190,2013-03-31 23:21:00
4:33 PM,55.4,51.8,88,30.04,3.0,South,6.9,-,0.12,Rain,Rain,180,2013-03-31 23:33:00
4:53 PM,55.9,53.1,90,30.04,9.0,Calm,Calm,-,0.14,Rain,Light Rain,0,2013-03-31 23:53:00
5:53 PM,57.9,55.9,93,30.02,10.0,NNW,5.8,-,0.00,,Scattered Clouds,330,2013-04-01 00:53:00
8:53 PM,55.9,50.0,80,30.05,10.0,Calm,Calm,-,N/A,,Mostly Cloudy,0,2013-04-01 03:53:00
9:53 PM,55.0,51.1,86,30.06,10.0,Calm,Calm,-,N/A,,Mostly Cloudy,0,2013-04-01 04:53:00
11:53 PM,54.0,52.0,93,30.06,10.0,Calm,Calm,-,N/A,,Overcast,0,2013-04-01 06:53:00